Hourly Data Report for September 20, 2019

All times are specified in Local Standard Time (LST). Add 1 hour to adjust for Daylight Saving Time where and when it is observed.

LUNENBURG
NOVA SCOTIA
Current Station Operator: ECCC - MSC

44°21'36.094" N
64°17'46.082" W
3.80 m
8203210
XLB

Download Data

Hourly Data (September 2019)
Hourly Data Report for September 20, 2019
TIME Temp Definition
°C
Dew Point Temp Definition
°C
Rel Hum Definition
%
Wind Dir Definition
10's deg

Wind Spd Definition
km/h
Visibility Definition
km
Stn Press Definition
kPa
Hmdx Definition


Wind Chill Definition


Weather Definition


00:00 10.0 8.1 88 26 8   102.06     LegendNANA
01:00 9.4 8.1 92 31 10   101.98     LegendNANA
02:00 9.5 8.4 93 30 8   101.89     LegendNANA
03:00 9.1 7.9 92 28 11   101.84     LegendNANA
04:00 9.4 7.9 90 28 3   101.83     LegendNANA
05:00 9.2 8.0 92 24 7   101.81     LegendNANA
06:00 9.6 7.1 85 29 8   101.78     LegendNANA
07:00 9.1 7.1 87 26 9   101.77     LegendNANA
08:00 11.3 7.6 78 28 6   101.76     LegendNANA
09:00 13.9 9.0 72 20 2   101.72     LegendNANA
10:00 16.5 9.4 63 16 4   101.70     LegendNANA
11:00 18.4 11.5 64 19 2   101.61     LegendNANA
12:00 20.2 11.7 58 15 6   101.51     LegendNANA
13:00 21.2 8.1 43 28 13   101.40     LegendNANA
14:00 21.7 8.2 42 26 14   101.30     LegendNANA
15:00 19.6 12.5 63 18 21   101.19     LegendNANA
16:00 20.7 12.3 58 19 13   101.11     LegendNANA
17:00 22.8 10.5 46 28 23   101.09     LegendNANA
18:00 20.8 11.9 56 28 12   101.13     LegendNANA
19:00 17.7 13.2 75 26 10   101.19     LegendNANA
20:00 17.8 12.7 72 23 13   101.24     LegendNANA
21:00 17.7 12.5 71 26 10   101.25     LegendNANA
22:00 17.1 12.5 75 26 15   101.24     LegendNANA
23:00 17.5 12.8 74 27 16   101.18     LegendNANA

Notes on Data Quality.

Legend

  • E = Estimated
  • M = Missing
  • NA = Not Available
Date modified: